Location: PACMO
(41.3967°N, 90.3760°W)
Time: 09:07:22
(UTC-05:00)

NOAA 19 - Visible Passes

Search period start: 21 September 2014 00:00
Search period end: 01 October 2014 00:00
Orbit: 843 x 863 km, 99.0° (Epoch: 20 September)

Date Brightness Start Highest point End Pass type
(mag) Time Alt. Az. Time Alt. Az. Time Alt. Az.
21 Sep 7.4 02:37:53 10° NNE 02:39:51 20° NE 02:39:51 20° NE visible
21 Sep 6.5 04:18:44 10° N 04:21:54 27° NW 04:21:54 27° NW visible
22 Sep 7.7 02:27:04 10° NE 02:28:32 17° NE 02:28:32 17° NE visible
22 Sep 6.5 04:07:30 10° N 04:10:35 29° NNW 04:10:35 29° NNW visible
23 Sep 7.9 02:16:20 10° NE 02:17:14 14° NE 02:17:14 14° NE visible
23 Sep 6.5 03:56:18 10° N 03:59:17 30° NNW 03:59:17 30° NNW visible
24 Sep 8.1 02:05:45 10° NE 02:05:55 11° NE 02:05:55 11° NE visible
24 Sep 6.6 03:45:08 10° N 03:47:58 31° N 03:47:58 31° N visible
25 Sep 6.7 03:34:01 10° N 03:36:39 29° N 03:36:39 29° N visible
25 Sep 7.3 05:17:55 10° NW 05:18:42 11° NW 05:18:42 11° NW visible
26 Sep 6.9 03:22:56 10° NNE 03:25:20 27° NNE 03:25:20 27° NNE visible
26 Sep 7.2 05:05:47 10° NNW 05:07:23 13° NW 05:07:23 13° NW visible
27 Sep 7.1 03:11:54 10° NNE 03:14:01 24° NNE 03:14:01 24° NNE visible
27 Sep 7.1 04:54:07 10° NNW 04:56:04 15° NW 04:56:04 15° NW visible
28 Sep 7.4 03:00:53 10° NNE 03:02:42 21° NNE 03:02:42 21° NNE visible
28 Sep 7.0 04:42:37 10° NNW 04:44:45 18° NW 04:44:45 18° NW visible
29 Sep 7.6 02:49:56 10° NNE 02:51:23 18° NNE 02:51:23 18° NNE visible
29 Sep 6.9 04:31:14 10° N 04:33:26 20° NNW 04:33:26 20° NNW visible
30 Sep 7.8 02:39:02 10° NNE 02:40:04 15° NE 02:40:04 15° NE visible
30 Sep 6.9 04:19:56 10° N 04:22:07 21° NNW 04:22:07 21° NNW visible
